Change the Weather History Date:

Sunday, March 10, 2013

  Actual Average (KLRD) Record (KLRD)
Temperature  
Mean Temperature 68 °F 67 °F  
Max Temperature 77 °F 78 °F 99 °F (2006)
Min Temperature 57 °F 56 °F 29 °F (1932)
Degree Days  
Heating Degree Days 0 3  
Month to date heating degree days 35  
Since 1 July heating degree days 879  
Cooling Degree Days 2 5  
Month to date cooling degree days 41  
Year to date cooling degree days 126  
Growing Degree Days 18 (Base 50)    
Moisture  
Dew Point 30 °F    
Average Humidity 32    
Maximum Humidity 78    
Minimum Humidity 5    
Precipitation  
Precipitation 0.00 in 0.03 in 0.57 in (2014)
Month to date precipitation 0.40  
Year to date precipitation 2.24  
Sea Level Pressure  
Sea Level Pressure 29.88 in    
Wind  
Wind Speed 15 mph (NNW)    
Max Wind Speed 24 mph    
Max Gust Speed 29 mph    
Visibility 10 miles    
Events      
T = Trace of Precipitation, MM = Missing Value Source: NWS Daily Summary

Daily Weather History Graph

Daily Weather History Graph

Search for Another Location

Airport or City:

Trip Planner

Search our weather history database for the weather conditions in past years. The results will help you decide how hot, cold, wet, or windy it might be!

Date:

Astronomy

Mar. 10, 2013 Rise Set
Actual Time 7:49 AM CDT 7:41 PM CDT
Civil Twilight 7:26 AM CDT 8:04 PM CDT
Nautical Twilight 6:59 AM CDT 8:31 PM CDT
Astronomical Twilight 6:32 AM CDT 8:58 PM CDT
Moon 6:47 AM CDT (3/10) 6:51 PM CDT (3/10)
Length of Visible Light 12h 38m
Length of Day
11h 51m
Waning Crescent, 2% of the Moon is Illuminated
Mar 10
Waning Crescent
Mar 11
New
Mar 19
First Quarter
Mar 27
Full
Apr 2
Last Quarter

Hourly Weather History & Observations

Time (CDT) Temp. Dew Point Humidity Pressure Visibility Wind Dir Wind Speed Gust Speed Precip Events Conditions
12:15 AM 68.9 °F 60.8 °F 75% 29.63 in 10.0 mi SSE 18.4 mph 26.5 mph N/A   Clear
12:35 AM 68.9 °F 60.8 °F 75% 29.63 in 10.0 mi SSE 20.7 mph 26.5 mph N/A   Clear
12:55 AM 68.9 °F 60.6 °F 75% 29.62 in 10.0 mi SSE 17.3 mph 27.6 mph N/A   Clear
1:15 AM 68.9 °F 60.8 °F 75% 29.63 in 10.0 mi South 13.8 mph 26.5 mph N/A   Scattered Clouds
1:35 AM 69.1 °F 61.2 °F 76% 29.63 in 10.0 mi South 20.7 mph 25.3 mph N/A   Mostly Cloudy
1:55 AM 69.1 °F 61.3 °F 76% 29.63 in 10.0 mi South 13.8 mph 26.5 mph N/A   Mostly Cloudy
3:15 AM 69.1 °F 61.7 °F 77% 29.62 in 10.0 mi SSE 13.8 mph - N/A   Scattered Clouds
3:55 AM 68.9 °F 61.9 °F 78% 29.64 in 10.0 mi South 5.8 mph - N/A   Mostly Cloudy
4:15 AM 69.3 °F 61.9 °F 77% 29.67 in 10.0 mi WSW 5.8 mph - N/A   Overcast
4:35 AM 69.6 °F 61.9 °F 76% 29.69 in 10.0 mi NW 4.6 mph - N/A   Overcast
4:55 AM 69.6 °F 61.7 °F 76% 29.72 in 10.0 mi NW 10.4 mph - N/A   Overcast
5:15 AM 69.8 °F 61.3 °F 74% 29.73 in 10.0 mi WNW 10.4 mph - N/A   Overcast
5:35 AM 69.6 °F 61.2 °F 74% 29.72 in 7.0 mi NNW 4.6 mph - N/A   Overcast
5:55 AM 69.4 °F 61.2 °F 75% 29.73 in 10.0 mi NW 3.5 mph - N/A   Overcast
6:15 AM 69.4 °F 61.2 °F 75% 29.75 in 10.0 mi NW 6.9 mph - N/A   Overcast
7:35 AM 64.8 °F 48.9 °F 56% 29.81 in 10.0 mi NNW 18.4 mph 24.2 mph N/A   Mostly Cloudy
7:55 AM 64.4 °F 47.3 °F 54% 29.81 in 10.0 mi North 19.6 mph 28.8 mph N/A   Scattered Clouds
8:15 AM 64.4 °F 45.9 °F 51% 29.83 in 10.0 mi North 17.3 mph 21.9 mph N/A   Clear
8:35 AM 64.4 °F 45.9 °F 51% 29.84 in 10.0 mi North 16.1 mph 23.0 mph N/A   Clear
8:55 AM 64.6 °F 46.4 °F 52% 29.86 in 10.0 mi NNW 15.0 mph 20.7 mph N/A   Clear
9:15 AM 65.1 °F 46.8 °F 51% 29.87 in 10.0 mi NNW 15.0 mph 23.0 mph N/A   Clear
9:35 AM 65.8 °F 46.6 °F 50% 29.88 in 10.0 mi North 19.6 mph 25.3 mph N/A   Clear
9:55 AM 66.9 °F 45.9 °F 47% 29.89 in 10.0 mi North 19.6 mph 25.3 mph N/A   Clear
10:15 AM 68.0 °F 43.0 °F 40% 29.91 in 10.0 mi North 17.3 mph 27.6 mph N/A   Clear
10:35 AM 69.1 °F 37.6 °F 32% 29.92 in 10.0 mi North 17.3 mph 26.5 mph N/A   Clear
10:55 AM 70.5 °F 32.7 °F 25% 29.92 in 10.0 mi North 19.6 mph 25.3 mph N/A   Clear
11:15 AM 71.1 °F 30.4 °F 22% 29.93 in 10.0 mi North 20.7 mph 28.8 mph N/A   Clear
11:35 AM 71.8 °F 28.2 °F 20% 29.94 in 10.0 mi North 18.4 mph 25.3 mph N/A   Clear
11:55 AM 72.7 °F 25.5 °F 17% 29.94 in 10.0 mi North 20.7 mph 25.3 mph N/A   Clear
12:15 PM 73.2 °F 23.5 °F 16% 29.93 in 10.0 mi NNW 19.6 mph 28.8 mph N/A   Clear
12:35 PM 73.6 °F 22.5 °F 15% 29.94 in 10.0 mi North 16.1 mph 26.5 mph N/A   Clear
12:55 PM 74.3 °F 20.8 °F 13% 29.93 in 10.0 mi North 19.6 mph 26.5 mph N/A   Clear
1:15 PM 75.2 °F 19.4 °F 12% 29.93 in 10.0 mi North 18.4 mph 26.5 mph N/A   Clear
1:35 PM 75.4 °F 15.3 °F 10% 29.92 in 10.0 mi NNW 20.7 mph 27.6 mph N/A   Clear
1:55 PM 75.7 °F 14.2 °F 10% 29.91 in 10.0 mi NNW 19.6 mph 25.3 mph N/A   Clear
2:15 PM 76.3 °F 14.5 °F 10% 29.90 in 10.0 mi NNW 15.0 mph 26.5 mph N/A   Clear
2:35 PM 76.6 °F 12.2 °F 9% 29.90 in 10.0 mi NNW 18.4 mph 27.6 mph N/A   Clear
2:55 PM 77.0 °F 9.0 °F 7% 29.90 in 10.0 mi NNW 24.2 mph 28.8 mph N/A   Clear
3:15 PM 77.4 °F 7.9 °F 7% 29.89 in 10.0 mi North 16.1 mph 24.2 mph N/A   Clear
3:35 PM 77.4 °F 7.5 °F 7% 29.88 in 10.0 mi North 19.6 mph 25.3 mph N/A   Clear
3:55 PM 77.5 °F 8.2 °F 7% 29.88 in 10.0 mi North 12.7 mph 23.0 mph N/A   Clear
4:15 PM 77.4 °F 5.2 °F 6% 29.88 in 10.0 mi North 17.3 mph 26.5 mph N/A   Clear
4:35 PM 77.5 °F 3.6 °F 6% 29.87 in 10.0 mi NNW 18.4 mph 26.5 mph N/A   Clear
4:55 PM 77.2 °F 2.1 °F 5% 29.87 in 10.0 mi North 18.4 mph 23.0 mph N/A   Clear
5:15 PM 77.0 °F 2.8 °F 6% 29.87 in 10.0 mi North 23.0 mph 27.6 mph N/A   Clear
5:35 PM 76.5 °F 3.6 °F 6% 29.88 in 10.0 mi NNW 18.4 mph 25.3 mph N/A   Clear
5:55 PM 75.9 °F 5.0 °F 6% 29.88 in 10.0 mi NNW 18.4 mph 23.0 mph N/A   Clear
6:15 PM 75.4 °F 5.7 °F 7% 29.88 in 10.0 mi North 18.4 mph 23.0 mph N/A   Clear
6:35 PM 74.7 °F 6.3 °F 7% 29.89 in 10.0 mi NNW 16.1 mph 21.9 mph N/A   Clear
6:55 PM 73.8 °F 8.6 °F 8% 29.90 in 10.0 mi North 16.1 mph - N/A   Clear
7:15 PM 72.3 °F 9.9 °F 9% 29.91 in 10.0 mi North 17.3 mph - N/A   Clear
7:35 PM 71.2 °F 10.9 °F 10% 29.92 in 10.0 mi North 10.4 mph - N/A   Clear
7:55 PM 70.0 °F 12.7 °F 11% 29.94 in 10.0 mi North 10.4 mph - N/A   Clear
8:15 PM 68.5 °F 13.8 °F 12% 29.95 in 10.0 mi North 8.1 mph - N/A   Clear
8:35 PM 67.6 °F 14.5 °F 13% 29.96 in 10.0 mi North 9.2 mph - N/A   Clear
8:55 PM 66.6 °F 14.9 °F 14% 29.99 in 10.0 mi North 9.2 mph - N/A   Clear
9:15 PM 65.8 °F 15.3 °F 14% 30.00 in 10.0 mi North 8.1 mph - N/A   Clear
9:35 PM 64.9 °F 15.4 °F 15% 30.02 in 10.0 mi North 9.2 mph - N/A   Clear
9:55 PM 64.0 °F 15.6 °F 15% 30.04 in 7.0 mi North 6.9 mph - N/A   Clear
10:15 PM 63.0 °F 16.3 °F 16% 30.06 in 10.0 mi North 6.9 mph - N/A   Clear
10:35 PM 62.1 °F 17.4 °F 18% 30.08 in 10.0 mi North 9.2 mph - N/A   Clear
10:55 PM 62.1 °F 18.3 °F 18% 30.08 in 10.0 mi North 9.2 mph - N/A   Clear
11:15 PM 61.2 °F 19.0 °F 20% 30.09 in 10.0 mi North 8.1 mph - N/A   Clear
11:35 PM 60.1 °F 19.8 °F 21% 30.10 in 10.0 mi North 9.2 mph - N/A   Clear
11:55 PM 59.9 °F 20.5 °F 22% 30.10 in 10.0 mi North 10.4 mph - N/A   Clear
12:15 AM 59.5 °F 21.4 °F 23% 30.11 in 10.0 mi North 8.1 mph - N/A   Clear
12:35 AM 58.6 °F 21.9 °F 24% 30.11 in 10.0 mi North 8.1 mph - N/A   Clear
12:55 AM 57.9 °F 22.3 °F 25% 30.11 in 10.0 mi North 6.9 mph - N/A   Clear